Weather Roundup
Issued by NWS Chicago, IL

Home | Current Version | Previous Version | Graphics & Text | Print | Product List | Glossary On
Versions: 1 2 3 4 5 6 7 8 9 10 11 12 13 14 15 16 17 18 19 20 21 22 23 24 25 26 27 28 29 30 31 32 33 34 35 36 37 38 39 40 41 42 43 44 45 46 47 48 49 50
000
NZUS59 KLOT 030221
HRRLOT

CHICAGO AREA WEATHER ROUNDUP
NATIONAL WEATHER SERVICE CHICAGO/ROMEOVILLE IL
900 PM CDT WED SEP 02 2015

NOTE: "FAIR" INDICATES FEW OR NO CLOUDS BELOW 12,000 FEET WITH NO
SIGNIFICANT WEATHER AND/OR OBSTRUCTIONS TO VISIBILITY.

* THESE STATIONS ARE NOT UNDER NWS QUALITY CONTROL. THEY ALSO MAY NOT
  REPORT WEATHER SUCH AS PRECIPITATION OR FOG.

ILZ005-006-012>014-019>023-030300-
NORTHEAST ILLINOIS

CITY           SKY/WX    TMP DP  RH WIND       PRES   REMARKS
OHARE          MOCLDY    79  67  66 S8        29.96R HX  81
MIDWAY         MOCLDY    85  68  56 S6        29.96S HX  88
AURORA         PTCLDY    77  69  76 S5        29.97S
LANSING*       MOCLDY    76  69  79 S3        29.98R
JOLIET*        MOCLDY    75  71  87 CALM      29.97S
WAUKEGAN       MOCLDY    76  69  79 SW3       29.95R
DUPAGE AIRPORT PTCLDY    76  68  76 S3        29.96S
WHEELING       MOCLDY    80  66  62 S6        29.96S HX  82
KANKAKEE*      MOCLDY    75  71  86 S5        29.99S
MORRIS*        MOCLDY    77  71  82 CALM      29.96S
LEWIS AIRPORT* MOCLDY    75  68  80 SW5       29.97S
NORTHERLY IS     N/A     84  65  52 S5          N/A  HX  86
$$

WIZ051-052-058>065-066-070>072-030300-
SOUTHEAST WISCONSIN

CITY           SKY/WX    TMP DP  RH WIND       PRES   REMARKS
MILWAUKEE      PTCLDY    79  70  74 S5        29.94R HX  82
KENOSHA*       PTCLDY    78  71  79 S6        29.95R HX  80
RACINE*        PTCLDY    77  69  76 S3        29.96R
BURLINGTON     MOCLDY    71  70  95 CALM      29.95R
WAUKESHA       CLEAR     75  66  73 SW3       29.96R
WEST BEND      CLEAR     72  66  83 CALM      29.95R
$$

INZ001>003-010>013-019-020-030300-
NORTHWEST INDIANA

CITY           SKY/WX    TMP DP  RH WIND       PRES   REMARKS
GARY*          MOCLDY    75  70  83 CALM      29.97S
MICHIGAN CITY* NOT AVBL
RENSSELAER*    NOT AVBL
VALPARAISO     PTCLDY    77  70  79 CALM      30.00R
$$

LMZ740>746-030300-
SOUTHERN LAKE MICHIGAN

STATION/POSITION TIME  SKY/WX   TEMP WIND        PRES    VSBY
                                AIR  DIR/SP/G
                 (UTC)          (F)  (DEG/KT/KT) (MB)    (MI)
HARRISON CRIB    0200            82  200/  8/  9   N/A
BURNHAM HARBOR   0200            83  190/  4/  5   N/A
CALUMET HARBOR   0200            82  190/  3/  4   N/A
BURNS HARBOR     0100            83  210/  9/ 12 1015.2R
MICHIGAN CITY    0200            81  170/  7/  8   N/A
$$

ABBREVIATIONS USED IN REMARKS
   TC - TEMPERATURE IN CELSIUS
  WCI - WIND CHILL INDEX
   HX - HEAT INDEX
  VSB - VISIBILITY
$$


USA.gov is the U.S. government's official web portal to all federal, state and local government web resources and services.